Вернуться в каталог

COSMOS 2251 DEB

АктивенLEO
NORAD 36371·DEBRIS·🇷🇺 Russia

Запущен Jun 16, 1993 с Plesetsk Cosmodrome

Loading…

Ближайшие Пролёты (ближайшие 24 часа)

TLE

УстаревающийSource: Space-Track

Эпоха: Sep 10, 2026, 00:20 UTC

1 36371U 93036AYY 26253.01403971  .00007347  00000-0  10672-2 0  9993
2 36371  74.0131 351.6355 0010333 329.9082  30.1497 14.76101374754418

Отслеживайте COSMOS 2251 DEB в реальном времени с AllMySat

Download on the App Store